Location: Doverdale
(52.2833°N, 2.2000°W)
Time: 14:28:43
(UTC+00:00)

Cosmos 1340 - Pass Details

Date: 29 October 2020
Orbit: 501 x 504 km, 81.2° (Epoch: 28 November)

Event Time Altitude Azimuth Distance (km) Brightness Sun altitude
Rises 17:18:47 0° 352° (N) 2,621 6.2 -5.8°
Reaches altitude 10° 17:21:01 10° 1° (N) 1,731 5.2 -6.1°
Maximum altitude 17:24:36 38° 70° (ENE) 786 3.1 -6.7°
Drops below altitude 10° 17:28:09 10° 141° (SE) 1,718 5.1 -7.2°
Sets 17:30:22 0° 149° (SSE) 2,598 6.1 -7.5°
